EWG2455 EDDS-EDDH

Flight info

Callsign EWG2455
Flight time 0h 58m
Altitude 35000
Route OKIBA4B/25 OKIBA N851 RIMKI Z99 LOHRE DCT MASEK DCT ELNAT/N0427F340 P605 NOLGO NOLGO3P
Aircraft A320/M-SDE3FGHIRWY/LB1

Departure

Time 2026-05-04 19:26
Airport Stuttgart Airport (EDDS)

Arrival

Time 2026-05-04 20:24
Airport Hamburg Helmut Schmidt Airport (EDDH)
Time Latitude Longitude Altitude Speed Heading
2026-05-04 18:54 48.68872 9.19288 1316 ft 0 kts 344°
2026-05-04 19:14 48.68871 9.19289 1315 ft 2 kts 344°
2026-05-04 19:14 48.68846 9.19300 1315 ft 4 kts 344°
2026-05-04 19:15 48.68825 9.19309 1315 ft 3 kts 344°
2026-05-04 19:15 48.68801 9.19313 1314 ft 4 kts 27°
2026-05-04 19:15 48.68789 9.19289 1314 ft 4 kts 74°
2026-05-04 19:15 48.68786 9.19273 1315 ft 0 kts 74°
2026-05-04 19:18 48.68787 9.19278 1315 ft 3 kts 74°
2026-05-04 19:19 48.68794 9.19312 1314 ft 3 kts 72°
2026-05-04 19:19 48.68801 9.19346 1314 ft 3 kts 73°
2026-05-04 19:19 48.68819 9.19436 1312 ft 15 kts 73°
2026-05-04 19:19 48.68853 9.19617 1309 ft 19 kts 74°
2026-05-04 19:20 48.68888 9.19823 1304 ft 21 kts 87°
2026-05-04 19:20 48.68822 9.19963 1296 ft 0 kts 82°
2026-05-04 19:20 48.68837 9.20024 1295 ft 17 kts 73°
2026-05-04 19:20 48.68874 9.20218 1290 ft 20 kts 74°
2026-05-04 19:21 48.68915 9.20440 1285 ft 24 kts 74°
2026-05-04 19:21 48.68957 9.20657 1279 ft 22 kts 73°
2026-05-04 19:21 48.69003 9.20896 1273 ft 25 kts 74°
2026-05-04 19:21 48.69054 9.21166 1269 ft 28 kts 74°
2026-05-04 19:22 48.69110 9.21467 1267 ft 31 kts 74°
2026-05-04 19:22 48.69171 9.21787 1256 ft 25 kts 74°
2026-05-04 19:22 48.69221 9.22052 1256 ft 27 kts 74°
2026-05-04 19:22 48.69272 9.22316 1245 ft 20 kts 74°
2026-05-04 19:23 48.69311 9.22525 1250 ft 22 kts 73°
2026-05-04 19:23 48.69355 9.22758 1230 ft 25 kts 74°
2026-05-04 19:23 48.69402 9.22997 1226 ft 17 kts 73°
2026-05-04 19:23 48.69436 9.23173 1225 ft 19 kts 73°
2026-05-04 19:24 48.69487 9.23443 1247 ft 29 kts 74°
2026-05-04 19:24 48.69512 9.23695 1252 ft 19 kts 113°
2026-05-04 19:24 48.69412 9.23737 1250 ft 9 kts 207°
2026-05-04 19:24 48.69390 9.23711 1232 ft 4 kts 222°
2026-05-04 19:25 48.69379 9.23695 1229 ft 7 kts 223°
2026-05-04 19:25 48.69283 9.23555 1206 ft 29 kts 228°
2026-05-04 19:25 48.69150 9.23092 1215 ft 80 kts 254°
2026-05-04 19:25 48.68947 9.21994 1249 ft 136 kts 254°
2026-05-04 19:26 48.68654 9.20446 1483 ft 163 kts 256°
2026-05-04 19:26 48.68320 9.18740 1929 ft 173 kts 255°
2026-05-04 19:26 48.67983 9.17008 2467 ft 172 kts 257°
2026-05-04 19:26 48.67632 9.15186 2650 ft 189 kts 255°
2026-05-04 19:27 48.67242 9.13182 2793 ft 208 kts 255°
2026-05-04 19:27 48.66975 9.10958 2929 ft 224 kts 278°
2026-05-04 19:27 48.67584 9.08746 3212 ft 235 kts 304°
2026-05-04 19:27 48.68672 9.06878 3843 ft 240 kts 327°
2026-05-04 19:28 48.70237 9.05879 4403 ft 256 kts 346°
2026-05-04 19:28 48.72005 9.05131 4876 ft 272 kts 344°
2026-05-04 19:28 48.73825 9.04283 4985 ft 274 kts 342°
2026-05-04 19:28 48.75692 9.03829 5004 ft 273 kts
2026-05-04 19:29 48.77462 9.04781 5010 ft 272 kts 37°
2026-05-04 19:29 48.78716 9.06891 5014 ft 271 kts 57°
2026-05-04 19:29 48.79796 9.09245 5011 ft 272 kts 56°
2026-05-04 19:29 48.80885 9.11596 5010 ft 272 kts 56°
2026-05-04 19:30 48.81979 9.13941 5009 ft 272 kts 56°
2026-05-04 19:30 48.83073 9.16280 5011 ft 272 kts 56°
2026-05-04 19:30 48.84167 9.18629 5010 ft 272 kts 56°
2026-05-04 19:30 48.85261 9.20984 5009 ft 272 kts 55°
2026-05-04 19:31 48.86346 9.23324 5007 ft 270 kts 57°
2026-05-04 19:31 48.87423 9.25646 5010 ft 268 kts 56°
2026-05-04 19:31 48.88533 9.27925 5009 ft 268 kts 50°
2026-05-04 19:31 48.89848 9.29889 5011 ft 269 kts 40°
2026-05-04 19:32 48.91417 9.31522 5011 ft 270 kts 30°
2026-05-04 19:32 48.93111 9.32682 5010 ft 271 kts 19°
2026-05-04 19:32 48.94941 9.33381 5013 ft 273 kts
2026-05-04 19:32 48.96839 9.33574 5012 ft 273 kts 358°
2026-05-04 19:33 48.98745 9.33421 5012 ft 274 kts 357°
2026-05-04 19:33 49.00647 9.33268 5012 ft 274 kts 358°
2026-05-04 19:33 49.02548 9.33120 5012 ft 273 kts 357°
2026-05-04 19:33 49.04448 9.32971 5015 ft 274 kts 357°
2026-05-04 19:34 49.06349 9.32818 5012 ft 274 kts 358°
2026-05-04 19:34 49.08256 9.32664 5011 ft 274 kts 357°
2026-05-04 19:34 49.10155 9.32510 5012 ft 274 kts 357°
2026-05-04 19:34 49.12060 9.32358 5011 ft 274 kts 358°
2026-05-04 19:35 49.13964 9.32210 5014 ft 274 kts 357°
2026-05-04 19:35 49.15871 9.32062 5015 ft 274 kts 357°
2026-05-04 19:35 49.17772 9.31910 5015 ft 274 kts 357°
2026-05-04 19:35 49.19683 9.31757 5014 ft 274 kts 357°
2026-05-04 19:36 49.21587 9.31609 5010 ft 275 kts 357°
2026-05-04 19:36 49.23472 9.31464 5011 ft 275 kts 357°
2026-05-04 19:36 49.25381 9.31317 5014 ft 274 kts 357°
2026-05-04 19:36 49.27289 9.31168 5014 ft 275 kts 357°
2026-05-04 19:37 49.29201 9.31020 5014 ft 275 kts 357°
2026-05-04 19:37 49.31112 9.30874 5016 ft 274 kts 357°
2026-05-04 19:37 49.33017 9.30726 5017 ft 274 kts 357°
2026-05-04 19:37 49.34920 9.30581 5017 ft 274 kts 358°
2026-05-04 19:38 49.36824 9.30737 5016 ft 274 kts
2026-05-04 19:38 49.38731 9.31023 5014 ft 276 kts
2026-05-04 19:38 49.40640 9.31305 5013 ft 276 kts
2026-05-04 19:38 49.42553 9.31585 5014 ft 276 kts
2026-05-04 19:39 49.44463 9.31867 5014 ft 276 kts
2026-05-04 19:39 49.46372 9.32151 5016 ft 276 kts
2026-05-04 19:39 49.48291 9.32435 5111 ft 280 kts
2026-05-04 19:39 49.50230 9.32723 5962 ft 281 kts
2026-05-04 19:40 49.52195 9.33012 6758 ft 286 kts
2026-05-04 19:40 49.54192 9.33304 7529 ft 290 kts
2026-05-04 19:40 49.56218 9.33603 8301 ft 295 kts
2026-05-04 19:40 49.58276 9.33908 9075 ft 299 kts
2026-05-04 19:41 49.60360 9.34218 9836 ft 303 kts
2026-05-04 19:41 49.62503 9.34535 10297 ft 319 kts
2026-05-04 19:41 49.64785 9.34873 10494 ft 342 kts
2026-05-04 19:41 49.67199 9.35231 10973 ft 352 kts
2026-05-04 19:42 49.69658 9.35599 11656 ft 357 kts
2026-05-04 19:42 49.72142 9.35973 12343 ft 360 kts
2026-05-04 19:42 49.74648 9.36380 13025 ft 364 kts
2026-05-04 19:42 49.77107 9.37232 13670 ft 369 kts 13°
2026-05-04 19:43 49.79608 9.38202 14278 ft 372 kts 13°
2026-05-04 19:43 49.82134 9.39174 14868 ft 376 kts 13°
2026-05-04 19:43 49.84685 9.40147 15438 ft 380 kts 13°
2026-05-04 19:43 49.87260 9.41131 16028 ft 383 kts 13°
2026-05-04 19:44 49.89857 9.42126 16606 ft 386 kts 13°
2026-05-04 19:44 49.92481 9.43136 17189 ft 390 kts 13°
2026-05-04 19:44 49.95125 9.44155 17753 ft 393 kts 13°
2026-05-04 19:44 49.97792 9.45183 18306 ft 397 kts 13°
2026-05-04 19:45 50.00480 9.46218 18795 ft 400 kts 13°
2026-05-04 19:45 50.03192 9.47266 19277 ft 403 kts 13°
2026-05-04 19:45 50.05920 9.48321 19766 ft 406 kts 11°
2026-05-04 19:45 50.08720 9.48993 20243 ft 407 kts
2026-05-04 19:46 50.11549 9.49467 20722 ft 410 kts
2026-05-04 19:46 50.14399 9.49937 21188 ft 413 kts
2026-05-04 19:46 50.17265 9.50407 21651 ft 416 kts
2026-05-04 19:46 50.20148 9.50880 22107 ft 419 kts
2026-05-04 19:47 50.23064 9.51362 22563 ft 421 kts
2026-05-04 19:47 50.25000 9.51685 22854 ft 423 kts
2026-05-04 19:47 50.27933 9.52178 23306 ft 426 kts
2026-05-04 19:47 50.30887 9.52678 23728 ft 428 kts
2026-05-04 19:48 50.33850 9.53182 24093 ft 430 kts
2026-05-04 19:48 50.36835 9.53687 24451 ft 432 kts
2026-05-04 19:48 50.39837 9.54191 24806 ft 435 kts
2026-05-04 19:48 50.42854 9.54699 25152 ft 437 kts
2026-05-04 19:49 50.45884 9.55214 25494 ft 439 kts
2026-05-04 19:49 50.48929 9.55735 25846 ft 442 kts
2026-05-04 19:49 50.51992 9.56260 26176 ft 444 kts
2026-05-04 19:49 50.55076 9.56789 26496 ft 446 kts
2026-05-04 19:50 50.58169 9.57322 26824 ft 449 kts
2026-05-04 19:50 50.61279 9.57855 27144 ft 451 kts
2026-05-04 19:50 50.64410 9.58385 27456 ft 453 kts
2026-05-04 19:50 50.67559 9.58915 27769 ft 456 kts
2026-05-04 19:51 50.70717 9.59448 28088 ft 458 kts
2026-05-04 19:51 50.73896 9.59991 28400 ft 460 kts
2026-05-04 19:51 50.77087 9.60571 28711 ft 463 kts
2026-05-04 19:51 50.80297 9.61194 29015 ft 465 kts
2026-05-04 19:52 50.83509 9.61837 29306 ft 467 kts
2026-05-04 19:52 50.86737 9.62488 29591 ft 469 kts
2026-05-04 19:52 50.89991 9.63142 29862 ft 471 kts
2026-05-04 19:52 50.93255 9.63788 30126 ft 473 kts
2026-05-04 19:53 50.96527 9.64428 30342 ft 475 kts
2026-05-04 19:53 50.99770 9.65058 30561 ft 477 kts
2026-05-04 19:53 51.03071 9.65695 30784 ft 478 kts
2026-05-04 19:53 51.06383 9.66335 31059 ft 479 kts
2026-05-04 19:54 51.09682 9.66977 31401 ft 477 kts
2026-05-04 19:54 51.12977 9.67621 31723 ft 477 kts
2026-05-04 19:54 51.16263 9.68267 32047 ft 476 kts
2026-05-04 19:54 51.19550 9.68918 32404 ft 475 kts
2026-05-04 19:55 51.22827 9.69552 32757 ft 473 kts
2026-05-04 19:55 51.26095 9.70117 33090 ft 472 kts
2026-05-04 19:55 51.29390 9.70639 33417 ft 471 kts
2026-05-04 19:55 51.32623 9.71132 33733 ft 470 kts
2026-05-04 19:56 51.35873 9.71626 34043 ft 470 kts
2026-05-04 19:56 51.39126 9.72130 34304 ft 469 kts
2026-05-04 19:56 51.42378 9.72646 34579 ft 469 kts
2026-05-04 19:56 51.45620 9.73169 34860 ft 468 kts
2026-05-04 19:57 51.48862 9.73707 34981 ft 467 kts
2026-05-04 19:57 51.55283 9.74910 35003 ft 463 kts
2026-05-04 19:58 51.61672 9.76172 35002 ft 462 kts
2026-05-04 19:58 51.68054 9.77408 34999 ft 462 kts
2026-05-04 19:59 51.74432 9.78612 35002 ft 461 kts
2026-05-04 19:59 51.80814 9.79819 35000 ft 462 kts
2026-05-04 20:00 51.87197 9.81040 35000 ft 462 kts
2026-05-04 20:00 51.93581 9.82280 35012 ft 462 kts
2026-05-04 20:01 51.99926 9.83505 35001 ft 462 kts
2026-05-04 20:01 52.06302 9.84751 34593 ft 458 kts
2026-05-04 20:01 52.09453 9.85370 34129 ft 454 kts
2026-05-04 20:02 52.12583 9.85979 33619 ft 451 kts
2026-05-04 20:02 52.15688 9.86585 33107 ft 448 kts
2026-05-04 20:02 52.18770 9.87188 32590 ft 445 kts
2026-05-04 20:02 52.21832 9.87788 32107 ft 441 kts
2026-05-04 20:03 52.24872 9.88442 31639 ft 440 kts
2026-05-04 20:03 52.27849 9.89639 31182 ft 440 kts 10°
2026-05-04 20:03 52.30792 9.90939 30731 ft 436 kts 10°
2026-05-04 20:03 52.33711 9.92228 30282 ft 433 kts
2026-05-04 20:04 52.36602 9.93499 29828 ft 429 kts 10°
2026-05-04 20:04 52.39478 9.94760 29314 ft 426 kts 10°
2026-05-04 20:04 52.42332 9.96013 28788 ft 422 kts 11°
2026-05-04 20:04 52.45156 9.97254 28298 ft 419 kts 11°
2026-05-04 20:05 52.47970 9.98495 27811 ft 416 kts 11°
2026-05-04 20:05 52.50750 9.99731 27334 ft 413 kts 11°
2026-05-04 20:05 52.53507 10.00957 26868 ft 409 kts 11°
2026-05-04 20:05 52.56248 10.02173 26406 ft 406 kts 11°
2026-05-04 20:06 52.58967 10.03382 25960 ft 403 kts 11°
2026-05-04 20:06 52.61688 10.04383 25504 ft 398 kts
2026-05-04 20:06 52.64374 10.05147 25067 ft 396 kts
2026-05-04 20:06 52.67084 10.05866 24637 ft 393 kts
2026-05-04 20:07 52.69777 10.06554 24211 ft 390 kts
2026-05-04 20:07 52.72453 10.07234 23791 ft 388 kts
2026-05-04 20:07 52.75112 10.07917 23342 ft 386 kts
2026-05-04 20:07 52.77754 10.08604 22873 ft 383 kts
2026-05-04 20:08 52.80381 10.09297 22434 ft 380 kts
2026-05-04 20:08 52.82985 10.09992 22027 ft 377 kts
2026-05-04 20:08 52.85556 10.10685 21669 ft 372 kts
2026-05-04 20:08 52.88106 10.11371 21285 ft 369 kts
2026-05-04 20:09 52.90656 10.12052 20894 ft 366 kts
2026-05-04 20:09 52.93136 10.12713 20511 ft 363 kts
2026-05-04 20:09 52.95610 10.13371 20134 ft 360 kts
2026-05-04 20:09 52.98075 10.14026 19761 ft 357 kts
2026-05-04 20:10 53.00515 10.14680 19395 ft 354 kts
2026-05-04 20:10 53.02937 10.15334 19037 ft 351 kts
2026-05-04 20:10 53.05341 10.15983 18684 ft 348 kts
2026-05-04 20:10 53.07722 10.16626 18341 ft 346 kts
2026-05-04 20:11 53.10086 10.17262 17959 ft 343 kts
2026-05-04 20:11 53.12436 10.17893 17563 ft 341 kts
2026-05-04 20:11 53.14739 10.18513 17182 ft 339 kts
2026-05-04 20:11 53.17063 10.19142 16801 ft 337 kts
2026-05-04 20:12 53.19377 10.19768 16428 ft 335 kts
2026-05-04 20:12 53.21672 10.20389 16068 ft 333 kts
2026-05-04 20:12 53.23956 10.21005 15717 ft 332 kts
2026-05-04 20:12 53.26231 10.21621 15370 ft 330 kts
2026-05-04 20:13 53.28495 10.22236 15015 ft 328 kts
2026-05-04 20:13 53.30741 10.22847 14583 ft 326 kts
2026-05-04 20:13 53.32966 10.23453 14038 ft 324 kts
2026-05-04 20:13 53.35186 10.24058 13602 ft 322 kts
2026-05-04 20:14 53.37390 10.24659 13159 ft 320 kts
2026-05-04 20:14 53.39556 10.25251 12718 ft 318 kts
2026-05-04 20:14 53.41729 10.25847 12275 ft 316 kts
2026-05-04 20:14 53.43893 10.26439 11846 ft 314 kts
2026-05-04 20:15 53.46037 10.27028 11291 ft 310 kts
2026-05-04 20:15 53.48161 10.27615 10723 ft 309 kts
2026-05-04 20:15 53.50257 10.28198 10348 ft 301 kts
2026-05-04 20:15 53.52309 10.28766 9842 ft 297 kts
2026-05-04 20:16 53.54337 10.29324 9220 ft 294 kts
2026-05-04 20:16 53.56345 10.29877 8626 ft 291 kts
2026-05-04 20:16 53.58334 10.30423 8015 ft 288 kts
2026-05-04 20:16 53.60315 10.30967 7608 ft 287 kts
2026-05-04 20:17 53.62275 10.31505 7158 ft 283 kts
2026-05-04 20:17 53.64211 10.32039 6584 ft 281 kts
2026-05-04 20:17 53.66130 10.32569 5999 ft 279 kts
2026-05-04 20:17 53.68033 10.33093 5394 ft 276 kts
2026-05-04 20:18 53.69927 10.33612 4799 ft 275 kts
2026-05-04 20:18 53.71814 10.34133 4406 ft 274 kts
2026-05-04 20:18 53.73686 10.34643 4046 ft 270 kts
2026-05-04 20:18 53.75515 10.34385 3690 ft 261 kts 337°
2026-05-04 20:19 53.76875 10.32576 3491 ft 244 kts 298°
2026-05-04 20:19 53.77234 10.29959 3357 ft 222 kts 262°
2026-05-04 20:19 53.76842 10.27548 3226 ft 207 kts 244°
2026-05-04 20:19 53.76108 10.25574 3117 ft 187 kts 234°
2026-05-04 20:20 53.75357 10.23956 3053 ft 164 kts 232°
2026-05-04 20:20 53.74678 10.22547 2990 ft 149 kts 232°
2026-05-04 20:20 53.74012 10.21176 2989 ft 147 kts 232°
2026-05-04 20:20 53.73369 10.19858 2969 ft 144 kts 232°
2026-05-04 20:21 53.72721 10.18531 2854 ft 156 kts 232°
2026-05-04 20:21 53.71997 10.17051 2662 ft 168 kts 232°
2026-05-04 20:21 53.70494 10.13986 2208 ft 171 kts 232°
2026-05-04 20:22 53.69738 10.12445 1980 ft 171 kts 232°
2026-05-04 20:22 53.68982 10.10905 1751 ft 173 kts 231°
2026-05-04 20:22 53.68225 10.09366 1498 ft 163 kts 233°
2026-05-04 20:22 53.67530 10.07953 1299 ft 152 kts 232°
2026-05-04 20:23 53.66868 10.06605 1101 ft 148 kts 232°
2026-05-04 20:23 53.66217 10.05282 903 ft 146 kts 233°
2026-05-04 20:23 53.65572 10.03972 694 ft 145 kts 233°
2026-05-04 20:23 53.64928 10.02664 510 ft 144 kts 232°
2026-05-04 20:24 53.64290 10.01369 321 ft 143 kts 234°
2026-05-04 20:24 53.63644 10.00092 105 ft 142 kts 232°
2026-05-04 20:24 53.63062 9.98863 46 ft 117 kts 234°
2026-05-04 20:24 53.62760 9.98250 43 ft 49 kts 227°
2026-05-04 20:25 53.62556 9.97854 41 ft 35 kts 227°
2026-05-04 20:25 53.62431 9.97884 45 ft 7 kts 97°
2026-05-04 20:25 53.62430 9.97912 46 ft 12 kts 92°
2026-05-04 20:25 53.62490 9.98142 47 ft 27 kts 48°
2026-05-04 20:26 53.62615 9.98388 47 ft 28 kts 49°
2026-05-04 20:26 53.62742 9.98645 47 ft 29 kts 50°
2026-05-04 20:26 53.62872 9.98910 47 ft 30 kts 51°
2026-05-04 20:26 53.63003 9.99183 47 ft 30 kts 51°
2026-05-04 20:27 53.63053 9.99287 47 ft 8 kts 51°
2026-05-04 20:27 53.63100 9.99397 46 ft 18 kts 55°
2026-05-04 20:27 53.63193 9.99608 47 ft 17 kts 50°
2026-05-04 20:27 53.63213 9.99759 48 ft 13 kts 127°
2026-05-04 20:28 53.63139 9.99835 48 ft 12 kts 152°
2026-05-04 20:28 53.63072 9.99894 48 ft 10 kts 152°
2026-05-04 20:28 53.63015 9.99945 48 ft 9 kts 153°
2026-05-04 20:28 53.62967 9.99996 48 ft 7 kts 134°
2026-05-04 20:29 53.62946 10.00066 46 ft 6 kts 114°
2026-05-04 20:29 53.62926 10.00124 48 ft 5 kts 123°
2026-05-04 20:29 53.62908 10.00171 48 ft 4 kts 124°
2026-05-04 20:29 53.62892 10.00211 48 ft 4 kts 122°
2026-05-04 20:30 53.62889 10.00220 46 ft 0 kts 122°